Terminal Aerodrome Forecast
Issued by NWS Atlanta, GA

Home | Current Version | Previous Version | Text Only | Print | Product List | Glossary On
Versions: 1 2 3 4 5 6 7 8 9 10 11 12 13 14 15 16 17 18 19 20 21 22 23 24 25 26 27 28 29 30 31 32 33 34 35 36 37 38 39
000
FTUS42 KFFC 180300 AAB
TAFATL
TAF AMD
KATL 180331Z 1804/1906 10010KT P6SM BKN045 OVC200
     FM180600 10010KT P6SM BKN035
     FM181000 07012KT P6SM OVC025
     FM181500 07014G22KT 5SM SHRA OVC015
     FM190000 05012G21KT 3SM SHRA BR OVC008=

USA.gov is the U.S. government's official web portal to all federal, state and local government web resources and services.